Location: *
(35.2348°S, 91.3916°E)
Time: 08:13:00
(UTC+00:00)

Daily predictions for brighter satellites

Satellite Brightness Start Highest point End
(mag) Time Altitude Azimuth Time Altitude Azimuth Time Altitude Azimuth
DELTA 2 R/B (1) 4.1 12:32:11 10° W 12:37:47 64° SSW 12:43:25 10° ESE
Cosmos 2285 Rocket 4.2 12:32:56 10° NNW 12:39:17 84° WSW 12:45:41 10° SSE
Cosmos 1939 Rocket 4.4 12:38:50 10° SE 12:41:13 15° E 12:43:35 10° NE
BREEZE-M DEB (TANK) 3.6 12:40:20 10° WSW 12:42:52 29° NW 12:44:55 10° NNE
PSLV R/B 3.2 12:45:45 10° WSW 12:48:20 46° SSE 12:50:52 10° E
Cosmos 1242 Rocket 4.1 12:46:26 10° NNW 12:49:49 41° W 12:53:14 10° S
SAR-Lupe-2 4.3 12:47:45 10° N 12:51:18 57° WNW 12:54:54 10° SSW
EO 1 Delta rocket 4.4 12:44:37 10° SSE 12:51:19 74° E 12:56:32 10° N
SeaSat 1 4.1 12:47:23 10° S 12:52:01 40° WSW 12:56:37 10° NW
CSL-04 Rocket 4.0 12:48:26 10° SSE 12:53:47 44° E 12:59:04 10° N
Cosmos 2123 Rocket 4.3 12:47:25 10° S 12:53:49 78° W 13:00:09 10° N
Cosmos 2082 Rocket 4.0 12:53:55 10° E 12:54:11 10° E 12:54:28 10° E
USA 229 DEB 4.2 12:52:51 10° SSW 12:59:17 41° SE 13:04:48 13° ENE
Lacrosse 5 rocket 2.8 12:56:03 10° NNE 12:59:19 20° ENE 13:02:41 10° ESE
USA 229 4.3 12:52:54 10° SSW 12:59:20 40° SE 13:04:51 13° ENE
Hubble Space Telescope 2.8 12:59:20 10° N 13:01:16 13° NNE 13:02:45 11° NE
FengYun 1-2 T 4.3 12:58:18 10° SSE 13:04:02 78° ENE 13:09:43 10° N
EXPRESS MD2 3.6 13:01:14 10° SW 13:04:03 47° SE 13:07:50 15° ENE
YAOGAN 1 2.6 13:01:49 10° SSE 13:06:11 64° E 13:10:29 10° N
BREEZE-M R/B 2.8 13:06:06 10° NW 13:10:27 83° NE 13:15:17 10° SE
YAOGAN 6 3.2 13:08:02 10° S 13:11:47 64° WSW 13:15:28 10° NNW
USA 215 4.3 13:08:21 10° ESE 13:13:01 20° ENE 13:17:38 10° NNE
Cosmos 2058 3.2 13:10:03 10° NNE 13:14:00 43° E 13:17:58 10° SSE
Cosmos 2221 2.4 13:10:29 10° S 13:14:52 78° E 13:19:11 10° N
ADEOS Rocket 3.3 13:09:27 10° N 13:15:31 65° WNW 13:21:10 10° SSW
COSMOS 2406 3.2 13:10:12 10° N 13:15:48 64° ENE 13:21:27 10° SSE
NOAA 11 4.5 13:10:30 10° SSE 13:15:48 45° E 13:21:02 10° N
CZ-4 R/B 1.8 13:11:50 10° S 13:15:50 68° WSW 13:19:53 10° NNW
BREEZE-M DEB (TANK) 4.1 13:13:50 10° N 13:15:32 16° NNE 13:15:32 16° NNE
Cosmos 1842 Rocket 3.9 13:12:16 10° SSW 13:16:39 68° W 13:21:00 10° N
Cosmos 1455 4.4 13:14:18 10° SSW 13:17:43 29° W 13:21:08 10° NNW
Cosmos 1076 Rocket 3.4 13:14:23 10° N 13:18:38 75° E 13:22:58 10° S
NOSS 3-1 (C) 3.7 13:13:28 10° SSW 13:19:26 45° SE 13:23:01 20° ENE
Meteor 1-27 4.2 13:13:51 10° S 13:19:37 85° E 13:25:13 10° N
Intercosmos 25 Rocket 3.8 13:19:41 10° S 13:23:34 68° E 13:29:28 10° NNE
Cosmos 773 Rocket 4.4 13:21:27 10° S 13:26:31 46° ESE 13:29:32 22° NE
Cosmos 2173 Rocket 3.9 13:20:54 10° N 13:26:54 62° E 13:32:58 10° SSE
TSX-5 4.2 13:22:16 10° SSW 13:27:07 69° WNW 13:30:15 15° NNE
CZ-2C R/B 3.1 13:25:04 20° NE 13:28:14 40° ESE 13:33:05 10° S
Okean 3 Rocket 3.8 13:30:45 14° NNE 13:34:16 47° E 13:38:33 10° SSE
Cosmos 2151 3.6 13:33:38 27° NE 13:35:08 36° E 13:39:06 10° SSE
USA 186 4.0 13:33:21 10° SE 13:34:10 14° SE 13:34:10 14° SE
Cosmos 1802 Rocket 3.9 13:34:50 10° N 13:41:01 66° E 13:47:12 10° SSE
CZ-4C R/B 3.6 13:36:50 10° NW 13:44:54 58° SW 13:52:04 10° SSE
Cosmos 1867 3.8 13:45:45 10° SW 13:51:09 68° WNW 13:54:22 25° NNE
Cosmos 1725 Rocket 4.2 13:47:08 19° NNE 13:51:33 51° E 13:57:40 10° SSE
Cosmos 1356 Rocket 3.4 13:47:30 10° S 13:51:36 56° E 13:52:19 48° ENE
H-2A R/B 3.3 13:51:00 10° SE 13:53:50 23° ESE 13:53:50 23° ESE
Genesis I 3.9 13:51:52 10° SSW 13:55:35 38° SE 13:55:43 38° ESE
Cosmos 2100 Rocket 4.3 13:51:07 10° NNW 13:57:16 68° W 14:03:34 10° S
Meteor 2-20 Rocket 4.5 13:53:53 10° S 14:00:04 80° W 14:04:56 17° N
GPS 2-04 Rocket1 2.3 13:56:42 10° W 14:00:13 82° S 14:00:23 78° SE
Cosmos 1833 Rocket 2.6 13:56:51 10° NNW 14:02:28 74° ENE 14:08:09 10° SSE
IRS-1A Rocket 4.2 13:57:21 10° SSE 14:03:08 78° ENE 14:08:43 10° N
Cosmos 1980 Rocket 3.9 14:00:58 10° SSE 14:04:34 17° SE 14:04:56 17° ESE
CZ-3B R/B 4.4 13:32:52 10° W 14:10:26 58° NNW 14:15:26 35° NE
Cosmos 1538 Rocket 3.9 14:06:29 10° SSW 14:11:46 86° WNW 14:13:20 47° NNE
MOS 1 Rocket 3.7 14:12:03 45° ESE 14:12:04 45° ESE 14:16:53 10° S
Cosmos 2016 Rocket 4.1 14:06:01 10° N 14:12:25 83° W 14:18:50 10° S
Centaur AC-112 4.5 14:11:36 10° NW 14:12:29 12° NW 14:12:29 12° NW
Thor Agena Rocket 4.3 14:15:23 35° ESE 14:15:23 35° ESE 14:19:44 10° S
H-2A ROCKET BODY 3.3 14:03:11 10° W 14:15:49 34° NW 14:17:21 29° N
Cosmos 1892 3.1 14:15:03 49° NW 14:15:50 62° W 14:19:40 10° S
SL-08 R/B 4.5 14:16:36 17° N 14:21:27 83° W 14:27:48 10° S
Ariane Rocket 3.8 14:18:53 10° S 14:23:51 51° WSW 14:28:46 10° NNW
DELTA 2 R/B (1) 4.0 14:19:08 10° WSW 14:24:43 58° S 14:26:17 43° ESE
Cosmos 1816 Rocket 4.4 14:18:35 10° S 14:24:46 68° E 14:25:51 57° NE
SJ 16-02 3.9 14:31:48 11° SE 14:31:48 11° SE 14:32:03 10° SE
Resurs 01 Rocket 4.1 14:30:09 10° SE 14:30:31 12° SE 14:30:31 12° SE
Cosmos 2082 Rocket 2.1 14:34:52 34° NNW 14:37:25 83° WSW 14:43:06 10° SSE
Lacrosse 5 rocket 2.5 14:33:48 10° WNW 14:38:12 47° SW 14:42:46 10° SSE
Cosmos 1151 Rocket 3.8 14:34:18 10° S 14:37:25 46° S 14:37:25 46° S
Cosmos 1898 Rocket 4.1 14:40:45 45° SE 14:40:45 45° SE 14:44:33 10° SSE
ARGOS 3.4 14:34:21 10° SSE 14:38:51 56° SE 14:38:51 56° SE
Kakehashi 4.5 14:36:06 10° NW 14:39:59 33° NNW 14:39:59 33° NNW
Lacrosse 4 Rocket 3.2 14:42:02 10° S 14:44:36 27° SSE 14:44:36 27° SSE
NOSS 2-3 (E) 4.2 14:47:11 10° SSW 14:53:14 76° W 14:53:14 76° W
Cosmos 1697 Rocket 2.8 14:50:11 10° SSW 14:55:20 73° S 14:55:20 73° S
NOSS 3-1 (A) 3.7 14:50:35 10° SW 14:56:22 50° WNW 14:56:29 50° WNW
USA 215 3.2 14:49:47 10° SE 14:56:25 87° SW 15:03:00 10° NW
SJ-6B 4.5 14:55:53 10° S 14:58:54 34° SW 14:58:54 34° SW
CZ-2C R/B 3.9 14:54:19 10° SSE 14:58:01 45° SSE 14:58:01 45° SSE
NOSS 2-3 (D) 4.4 14:55:22 10° SW 15:01:10 67° WSW 15:01:10 67° WSW
Tsikada Rocket 4.4 15:02:41 10° SSW 15:08:44 54° W 15:09:29 51° WNW
SL-16 R/B 4.2 15:05:20 10° SSE 15:07:45 16° SE 15:07:45 16° SE
Cosmos 2369 4.2 15:07:14 10° SSW 15:12:07 56° WSW 15:12:07 56° WSW
H-2A R/B 3.6 15:30:12 10° S 15:34:28 30° WSW 15:34:28 30° WSW
Cosmos 2322 Rocket 4.2 15:31:49 10° S 15:34:21 20° SSE 15:34:21 20° SSE
Cosmos 1980 Rocket 3.6 15:43:26 10° SSW 15:46:43 35° SW 15:46:43 35° SW
Mayak 1.9 16:05:26 13° SSW 16:05:26 13° SSW 16:05:52 10° SSW
SJ 16-02 4.4 16:08:43 13° SSW 16:08:43 13° SSW 16:09:33 10° SSW
Resurs 01 Rocket 4.5 16:06:58 10° SSW 16:08:05 15° SSW 16:08:05 15° SSW
SL-16 R/B 4.5 16:48:01 10° SSW 16:49:37 19° SSW 16:49:37 19° SSW
ATLAS 2AS CENTAUR R/B 4.3 17:21:51 10° SSW 17:24:30 27° SSW 17:24:30 27° SSW
CZ-2D R/B 4.4 18:31:25 20° S 18:31:25 20° S 18:33:08 10° S
Cosmos 2237 Rocket 4.5 18:47:03 10° SSW 18:48:29 18° SSW 18:48:29 18° SSW
SL-16 R/B 4.4 19:19:45 10° SE 19:24:11 20° E 19:24:55 20° ENE
ADEOS II 3.7 19:34:43 29° S 19:34:43 29° S 19:37:17 10° S
Cosmos 2227 Rocket 4.0 19:49:14 22° SSW 19:49:14 22° SSW 19:51:58 10° S
SL-16 R/B 3.5 19:43:45 10° SSW 19:46:54 34° S 19:46:54 34° S
Cosmos 2297 Rocket 4.1 19:53:31 20° SSW 19:53:31 20° SSW 19:56:11 10° S
Meteor 2-9 Rocket 4.5 20:15:56 64° SSW 20:15:56 64° SSW 20:21:01 10° S
ATLAS 5 CENTAUR R/B 3.4 20:17:58 40° NNE 20:19:32 45° ENE 20:25:57 10° SE
Okean 1 Rocket 4.1 20:23:53 45° SE 20:23:53 45° SE 20:27:09 10° SSE
ARIANE 5 R/B 4.5 20:26:40 19° SW 20:26:40 19° SW 20:28:13 10° SSW
FALCON 9 R/B 3.7 20:37:26 13° ENE 20:37:26 13° ENE 20:38:01 10° ENE
Cosmos 1607 4.0 20:37:32 58° WSW 20:38:00 60° WSW 20:44:22 10° SSE
Cosmos 405 Rocket 3.8 20:40:50 41° SSE 20:40:50 41° SSE 20:43:27 10° SSE
OAO 3 Rocket 3.5 20:40:29 62° ENE 20:40:29 62° ENE 20:44:33 10° E
Meteor 1-4 Rocket 3.8 20:39:44 10° S 20:42:50 42° SE 20:42:50 42° SE
PSLV R/B 4.1 20:44:04 49° ENE 20:44:49 57° ESE 20:49:03 10° S
ADEOS 3.6 20:44:44 35° NNE 20:46:59 76° ESE 20:52:17 10° S
Nadezhda 1 Rocket 4.2 20:45:29 30° NNE 20:48:41 67° E 20:54:53 10° SSE
Cosmos 2263 Rocket 2.0 20:52:04 65° WNW 20:52:47 74° WSW 20:58:27 10° SSE
CZ-3A R/B 3.9 20:55:11 12° NNE 20:55:42 12° NE 20:58:14 10° ENE
Cosmos 1455 Rocket 4.2 21:00:17 19° NNE 21:02:58 40° E 21:07:08 10° SSE
Abrixas rocket 3.4 21:04:30 38° ESE 21:04:30 38° ESE 21:06:36 10° ESE
SAR-Lupe-4 3.7 21:00:42 10° SSE 21:03:56 68° S 21:03:56 68° S
CZ-3B R/B 2.8 21:08:39 16° NE 21:08:39 16° NE 21:09:24 10° NE
SL-16 R/B 2.7 21:01:59 10° S 21:08:04 56° WSW 21:10:01 40° WNW
Cosmos 1110 Rocket 4.0 21:09:41 50° WNW 21:10:46 62° WSW 21:16:00 10° S
CZ-4C R/B 4.3 21:06:25 10° S 21:10:51 24° SE 21:14:49 10° E
MSX 3.8 21:06:06 10° NNE 21:11:52 87° ESE 21:17:44 10° SSW
Landsat 5 4.1 21:10:51 10° SSE 21:15:00 55° E 21:17:43 21° N
Cosmos 1437 Rocket 3.6 21:13:01 10° S 21:16:57 51° E 21:20:44 10° NNE
OAO 2 Rocket 3.2 21:15:31 42° W 21:17:19 88° N 21:22:24 10° E
Cosmos 1850 Rocket 4.1 21:14:35 10° SSW 21:19:45 51° WNW 21:22:29 26° NNW
Cosmos 371 Rocket 3.3 21:20:05 42° NW 21:21:38 66° WSW 21:26:33 10° SSE
CZ-4B R/B 4.3 21:18:30 10° NE 21:21:50 36° ESE 21:25:17 10° S
H-2A R/B 2.5 21:18:00 12° N 21:22:08 82° WNW 21:26:41 10° SSW
Lacrosse 5 rocket 3.7 21:18:29 10° SSW 21:22:25 27° SE 21:26:11 10° E
Cosmos 2327 Rocket 4.5 21:17:14 10° S 21:23:43 76° W 21:30:03 10° N
USA 32 4.1 21:23:27 10° SSW 21:28:36 53° W 21:31:39 23° NNW
DNEPR-1 R/B 4.4 21:29:58 30° W 21:30:55 34° WSW 21:34:48 10° S
Cosmos 2154 Rocket 3.9 21:25:01 10° S 21:31:20 80° W 21:37:33 10° N
Cosmos 909 Rocket 4.5 21:25:29 10° SW 21:32:20 64° WNW 21:40:50 10° NNE
H-2A R/B 2.7 21:28:46 10° S 21:32:34 34° WSW 21:33:11 32° W
CZ-4C R/B 2.9 21:29:36 10° S 21:32:45 52° WSW 21:32:58 51° W
Helios 1B 4.5 21:28:21 10° S 21:32:46 75° WSW 21:35:13 26° NNW
Cosmos 1603 3.8 21:28:11 10° SSW 21:33:39 52° WNW 21:39:04 10° N
IDEFIX/ARIANE 42P 3.1 21:32:35 29° NW 21:34:20 37° W 21:39:11 10° SSW
Cosmos 1610 Rocket 4.4 21:28:22 10° SSW 21:34:33 69° W 21:40:42 10° N
COSMOS 2441 4.3 21:31:25 10° N 21:36:12 64° W 21:41:03 10° SSW
Cosmos 1241 Rocket 4.5 21:30:13 10° SSW 21:36:47 71° WNW 21:43:19 10° NNE
Cosmos 1674 3.7 21:33:26 10° S 21:37:09 47° E 21:40:46 10° NNE
Cosmos 1707 3.7 21:33:54 10° SSW 21:36:59 29° W 21:36:59 29° W
Cosmos 2184 Rocket 4.4 21:34:09 10° SSW 21:39:52 39° W 21:44:13 16° NNW
Okean 1-7 Rocket 3.5 21:39:55 10° SSW 21:44:21 68° W 21:48:43 10° N
Meteor 1-24 Rocket 4.4 21:41:32 10° S 21:46:53 55° E 21:52:17 10° NNE
Delta 2 Rocket 4.3 21:44:50 23° NW 21:47:36 49° NNE 21:52:49 10° E
Cosmos 1844 Rocket 3.1 21:42:07 10° N 21:47:37 64° ENE 21:53:13 10° SSE
CZ-3 R/B 4.4 21:28:30 12° NW 21:48:03 30° N 21:55:55 10° ENE
SL-08 R/B 3.8 21:45:15 10° S 21:49:51 42° WSW 21:52:46 20° NW
Cosmos 2084 4.1 21:49:17 25° WNW 21:51:08 38° SW 21:55:07 10° SSE
ATLAS CENTAUR R/B 2.2 21:52:43 24° NNW 21:52:43 24° NNW 21:54:56 10° NNE
CZ-4B R/B 1.5 21:49:58 10° SSE 21:53:33 82° ENE 21:56:59 10° N
Cosmos 1733 3.4 21:50:16 10° N 21:54:03 74° E 21:57:54 10° S
Sakura Rocket 4.1 22:00:35 18° NW 22:02:39 26° NNW 22:05:55 10° NE
Cosmos 1943 3.6 21:58:23 10° SW 22:03:41 39° WNW 22:08:56 10° N
Cosmos 2341 Rocket 4.0 21:57:32 10° S 22:03:58 76° W 22:10:16 10° N
ATLAS 5 CENTAUR R/B 3.4 21:59:32 16° WNW 22:04:27 36° SW 22:10:30 10° SSE
Shenzhou-11 Module 4.3 22:02:59 10° SW 22:04:58 18° S 22:06:58 10° SE
SL-4 R/B 2.2 22:01:43 10° SW 22:06:00 85° SE 22:10:34 10° NE
Cosmos 1805 3.9 22:06:00 13° NW 22:09:11 36° W 22:12:53 10° SSW
Meteor 1-28 Rocket 3.2 22:05:34 10° S 22:09:25 82° WSW 22:13:14 10° NNW
Cosmos 1766 4.0 22:06:15 13° NW 22:09:33 36° W 22:13:19 10° SSW
CZ-2C R/B 2.8 22:06:42 10° NNW 22:11:13 39° W 22:15:40 10° SSW
Cosmos 1486 Rocket 4.3 22:07:50 10° SSW 22:13:06 73° ESE 22:18:18 10° NNE
CZ-4B R/B 4.4 22:08:53 10° N 22:13:12 46° W 22:17:35 10° SSW
Cosmos 1992 Rocket 4.1 22:10:11 10° NNW 22:15:24 84° ENE 22:20:42 10° SSE
SL-8 Rocket 4.0 22:09:44 10° S 22:16:08 86° W 22:22:24 10° N
PSLV R/B 3.7 22:12:56 10° N 22:16:48 74° W 22:20:49 10° SSW
Geosat 4.4 22:13:04 10° S 22:17:54 45° WSW 22:22:41 10° NW
Cosmos 1689 Rocket 2.1 22:16:04 10° S 22:19:10 71° WSW 22:22:12 10° NNW
SJ-12 4.4 22:16:58 10° NNE 22:21:06 70° ESE 22:25:18 10° S
SeaSat 1 2.8 22:17:36 10° NNE 22:22:31 74° ESE 22:27:30 10° SSW
OAO 3 Rocket 3.2 22:18:25 10° W 22:23:16 85° N 22:28:02 10° E
Cosmos 2278 Rocket 4.3 22:20:54 10° NNE 22:25:40 29° ENE 22:30:29 10° SE
Cosmos 2366 rocket 4.1 22:20:56 10° S 22:27:18 90° ESE 22:33:38 10° N
Meteor 1-31 Rocket 3.8 22:27:26 10° NNW 22:30:38 25° W 22:33:54 10° SW
Cosmos 1953 3.2 22:29:04 10° N 22:32:58 54° E 22:36:55 10° SSE
Cosmos 1844 3.8 22:28:36 10° NNW 22:34:12 64° WSW 22:39:49 10° SSE
Cosmos 1470 2.7 22:31:05 10° NNW 22:34:57 74° W 22:38:55 10° S
Yuri Rocket 4.1 22:31:26 10° WNW 22:35:08 28° N 22:38:47 10° NE
ALOS 2.5 22:31:53 10° NNE 22:36:34 78° ESE 22:41:19 10° S
